XAFOF MMAA-MMMX

Flight info

Callsign XAFOF
Flight time 0h 34m
Altitude 43000
Route ALNUS1B ALNUS UT117 ESPOS ESPOS4B
Aircraft GLF4/M-SFGHIRWXY/S

Departure

Time 2026-05-06 00:42
Airport General Juan N. Álvarez International Airport (MMAA)

Arrival

Time 2026-05-06 01:16
Airport Mexico City Benito Juárez International Airport (MMMX)
Time Latitude Longitude Altitude Speed Heading
2026-05-06 00:15 16.76093 -99.75026 24 ft 0 kts 68°
2026-05-06 00:32 16.76097 -99.75017 24 ft 21 kts 68°
2026-05-06 00:33 16.76098 -99.75014 24 ft 0 kts 68°
2026-05-06 00:34 16.76094 -99.75010 24 ft 2 kts 174°
2026-05-06 00:34 16.76070 -99.75032 24 ft 3 kts 242°
2026-05-06 00:35 16.76055 -99.75045 24 ft 3 kts 177°
2026-05-06 00:35 16.76042 -99.75008 24 ft 8 kts 98°
2026-05-06 00:35 16.76030 -99.74918 24 ft 14 kts 97°
2026-05-06 00:35 16.76023 -99.74855 24 ft 5 kts 104°
2026-05-06 00:36 16.76022 -99.74852 24 ft 0 kts 110°
2026-05-06 00:36 16.76013 -99.74838 24 ft 10 kts 136°
2026-05-06 00:37 16.75904 -99.74785 24 ft 16 kts 152°
2026-05-06 00:37 16.75796 -99.74738 24 ft 14 kts 158°
2026-05-06 00:37 16.75695 -99.74663 24 ft 30 kts 121°
2026-05-06 00:37 16.75607 -99.74420 24 ft 37 kts 109°
2026-05-06 00:38 16.75523 -99.74158 24 ft 38 kts 109°
2026-05-06 00:38 16.75422 -99.73840 24 ft 46 kts 108°
2026-05-06 00:38 16.75330 -99.73545 24 ft 38 kts 107°
2026-05-06 00:38 16.75268 -99.73353 24 ft 8 kts 117°
2026-05-06 00:39 16.75266 -99.73350 24 ft 0 kts 117°
2026-05-06 00:39 16.75260 -99.73343 24 ft 3 kts 139°
2026-05-06 00:39 16.75238 -99.73331 24 ft 5 kts 167°
2026-05-06 00:39 16.75209 -99.73328 24 ft 0 kts 186°
2026-05-06 00:40 16.75177 -99.73339 24 ft 4 kts 201°
2026-05-06 00:40 16.75176 -99.73340 24 ft 0 kts 201°
2026-05-06 00:41 16.75126 -99.73359 24 ft 11 kts 200°
2026-05-06 00:41 16.75112 -99.73473 24 ft 39 kts 287°
2026-05-06 00:42 16.75309 -99.74108 24 ft 150 kts 287°
2026-05-06 00:42 16.75726 -99.75302 619 ft 182 kts 290°
2026-05-06 00:42 16.76243 -99.76582 1115 ft 204 kts 287°
2026-05-06 00:42 16.76639 -99.78226 1821 ft 261 kts 285°
2026-05-06 00:43 16.77190 -99.80074 2646 ft 269 kts 286°
2026-05-06 00:43 16.77761 -99.81918 3444 ft 268 kts 287°
2026-05-06 00:43 16.78338 -99.83774 4247 ft 271 kts 287°
2026-05-06 00:43 16.78900 -99.85578 4669 ft 277 kts 287°
2026-05-06 00:44 16.79836 -99.87265 5007 ft 278 kts 315°
2026-05-06 00:44 16.81391 -99.88277 5282 ft 282 kts 339°
2026-05-06 00:44 16.83316 -99.88894 5384 ft 285 kts 343°
2026-05-06 00:44 16.85215 -99.89431 5433 ft 283 kts 344°
2026-05-06 00:45 16.87122 -99.89963 5483 ft 282 kts 344°
2026-05-06 00:45 16.89042 -99.90498 5534 ft 282 kts 344°
2026-05-06 00:45 16.90913 -99.91019 6392 ft 277 kts 344°
2026-05-06 00:45 16.92781 -99.91541 7373 ft 287 kts 345°
2026-05-06 00:46 16.94733 -99.92024 8357 ft 293 kts 356°
2026-05-06 00:46 16.96718 -99.91667 9381 ft 297 kts 25°
2026-05-06 00:46 16.98360 -99.90745 10285 ft 300 kts 30°
2026-05-06 00:46 17.00346 -99.89510 11336 ft 347 kts 31°
2026-05-06 00:47 17.02497 -99.88157 12350 ft 359 kts 31°
2026-05-06 00:47 17.04656 -99.86798 13339 ft 360 kts 31°
2026-05-06 00:47 17.06814 -99.85438 14323 ft 363 kts 31°
2026-05-06 00:47 17.09009 -99.84055 15315 ft 368 kts 31°
2026-05-06 00:48 17.10822 -99.82912 16125 ft 372 kts 32°
2026-05-06 00:48 17.13258 -99.81376 17200 ft 377 kts 32°
2026-05-06 00:48 17.15547 -99.79932 17744 ft 386 kts 32°
2026-05-06 00:48 17.17806 -99.78507 17816 ft 386 kts 32°
2026-05-06 00:49 17.20061 -99.77144 17892 ft 383 kts 23°
2026-05-06 00:49 17.22571 -99.76436 18774 ft 388 kts
2026-05-06 00:49 17.25384 -99.76449 19819 ft 406 kts 360°
2026-05-06 00:49 17.28243 -99.76510 20809 ft 413 kts 359°
2026-05-06 00:50 17.31141 -99.76572 21796 ft 417 kts 359°
2026-05-06 00:50 17.34004 -99.76634 22760 ft 422 kts 360°
2026-05-06 00:50 17.37022 -99.76698 23763 ft 428 kts 360°
2026-05-06 00:50 17.40047 -99.76762 24756 ft 434 kts 360°
2026-05-06 00:51 17.42994 -99.76826 25710 ft 439 kts 360°
2026-05-06 00:51 17.46081 -99.76891 26697 ft 445 kts 360°
2026-05-06 00:51 17.49124 -99.76956 27657 ft 451 kts 360°
2026-05-06 00:51 17.51991 -99.77017 28550 ft 456 kts 360°
2026-05-06 00:52 17.55360 -99.77089 29587 ft 463 kts 360°
2026-05-06 00:52 17.58661 -99.77160 30589 ft 469 kts 360°
2026-05-06 00:52 17.61897 -99.77230 31559 ft 475 kts 360°
2026-05-06 00:52 17.65079 -99.77299 32501 ft 480 kts 360°
2026-05-06 00:53 17.68383 -99.77371 33467 ft 485 kts 360°
2026-05-06 00:53 17.71728 -99.77445 34437 ft 486 kts 359°
2026-05-06 00:53 17.75115 -99.77518 35416 ft 485 kts 359°
2026-05-06 00:53 17.78548 -99.77612 36410 ft 482 kts 358°
2026-05-06 00:54 17.81851 -99.77786 36767 ft 491 kts 358°
2026-05-06 00:54 17.88810 -99.78155 36826 ft 504 kts 358°
2026-05-06 00:55 17.95769 -99.78528 36893 ft 505 kts 358°
2026-05-06 00:55 17.99274 -99.78715 37004 ft 504 kts 358°
2026-05-06 00:55 18.02711 -99.78899 37119 ft 504 kts 358°
2026-05-06 00:55 18.05985 -99.79075 37236 ft 503 kts 358°
2026-05-06 00:56 18.09605 -99.79269 37348 ft 504 kts 358°
2026-05-06 00:56 18.16208 -99.79623 37075 ft 495 kts 358°
2026-05-06 00:56 18.19710 -99.79811 36447 ft 471 kts 358°
2026-05-06 00:57 18.22905 -99.79982 35888 ft 456 kts 358°
2026-05-06 00:57 18.26082 -99.80152 35339 ft 446 kts 358°
2026-05-06 00:57 18.29157 -99.80318 34813 ft 437 kts 358°
2026-05-06 00:57 18.31813 -99.80460 34361 ft 429 kts 358°
2026-05-06 00:58 18.34629 -99.80611 33885 ft 422 kts 358°
2026-05-06 00:58 18.37756 -99.80779 33359 ft 415 kts 358°
2026-05-06 00:58 18.40215 -99.80911 32941 ft 416 kts 358°
2026-05-06 00:58 18.43440 -99.81084 32371 ft 425 kts 358°
2026-05-06 00:59 18.46447 -99.81245 31846 ft 432 kts 358°
2026-05-06 00:59 18.49487 -99.81409 31317 ft 436 kts 358°
2026-05-06 00:59 18.52529 -99.81573 30789 ft 436 kts 358°
2026-05-06 00:59 18.55601 -99.81738 30261 ft 436 kts 358°
2026-05-06 01:00 18.58673 -99.81904 29741 ft 437 kts 358°
2026-05-06 01:00 18.61707 -99.82067 29233 ft 438 kts 358°
2026-05-06 01:00 18.64787 -99.82233 28723 ft 440 kts 358°
2026-05-06 01:00 18.67819 -99.82362 28202 ft 441 kts
2026-05-06 01:01 18.70752 -99.81593 27720 ft 439 kts 26°
2026-05-06 01:01 18.73230 -99.79870 27247 ft 440 kts 41°
2026-05-06 01:01 18.75131 -99.77412 26775 ft 441 kts 61°
2026-05-06 01:01 18.76494 -99.74544 26268 ft 433 kts 65°
2026-05-06 01:02 18.77765 -99.71635 25741 ft 421 kts 65°
2026-05-06 01:02 18.78975 -99.68806 25235 ft 411 kts 66°
2026-05-06 01:02 18.80132 -99.66087 24754 ft 400 kts 66°
2026-05-06 01:02 18.81273 -99.63400 24282 ft 391 kts 66°
2026-05-06 01:03 18.82372 -99.60809 23830 ft 382 kts 66°
2026-05-06 01:03 18.83422 -99.58322 23379 ft 376 kts 63°
2026-05-06 01:03 18.84793 -99.55967 22778 ft 376 kts 58°
2026-05-06 01:03 18.86210 -99.53613 22170 ft 376 kts 58°
2026-05-06 01:04 18.87629 -99.51263 21569 ft 374 kts 58°
2026-05-06 01:04 18.89027 -99.48950 20984 ft 371 kts 58°
2026-05-06 01:04 18.90420 -99.46643 20409 ft 366 kts 57°
2026-05-06 01:04 18.91789 -99.44376 19852 ft 361 kts 57°
2026-05-06 01:05 18.93124 -99.42165 19316 ft 357 kts 57°
2026-05-06 01:05 18.94465 -99.39944 18786 ft 354 kts 57°
2026-05-06 01:05 18.95777 -99.37770 18276 ft 352 kts 57°
2026-05-06 01:05 18.97109 -99.35561 17765 ft 351 kts 57°
2026-05-06 01:06 18.98289 -99.33605 17320 ft 349 kts 57°
2026-05-06 01:06 18.99606 -99.31420 16827 ft 348 kts 57°
2026-05-06 01:06 19.00918 -99.29244 16343 ft 346 kts 57°
2026-05-06 01:06 19.02225 -99.27076 15865 ft 345 kts 57°
2026-05-06 01:07 19.03509 -99.24945 15402 ft 343 kts 57°
2026-05-06 01:07 19.04810 -99.22784 14938 ft 342 kts 57°
2026-05-06 01:07 19.06090 -99.20657 14487 ft 340 kts 57°
2026-05-06 01:07 19.07359 -99.18549 14113 ft 336 kts 57°
2026-05-06 01:08 19.08595 -99.16492 14038 ft 331 kts 57°
2026-05-06 01:08 19.09798 -99.14491 14015 ft 320 kts 57°
2026-05-06 01:08 19.10940 -99.12591 14000 ft 301 kts 57°
2026-05-06 01:08 19.12040 -99.10761 13972 ft 285 kts 56°
2026-05-06 01:09 19.13113 -99.08976 13523 ft 286 kts 57°
2026-05-06 01:09 19.14173 -99.07210 13100 ft 285 kts 57°
2026-05-06 01:09 19.15201 -99.05498 12689 ft 285 kts 57°
2026-05-06 01:09 19.16343 -99.03794 12264 ft 282 kts 40°
2026-05-06 01:10 19.18065 -99.02940 11900 ft 276 kts
2026-05-06 01:10 19.19889 -99.03224 11536 ft 273 kts 333°
2026-05-06 01:10 19.21282 -99.04499 11169 ft 270 kts 311°
2026-05-06 01:10 19.22576 -99.05921 10762 ft 270 kts 316°
2026-05-06 01:11 19.23891 -99.07255 10543 ft 263 kts 315°
2026-05-06 01:11 19.25052 -99.08759 10315 ft 256 kts 309°
2026-05-06 01:11 19.26136 -99.10237 10206 ft 246 kts 308°
2026-05-06 01:11 19.27146 -99.11631 10202 ft 245 kts 308°
2026-05-06 01:12 19.28141 -99.13007 10208 ft 250 kts 308°
2026-05-06 01:12 19.29204 -99.14480 10214 ft 253 kts 308°
2026-05-06 01:12 19.30260 -99.15942 10215 ft 253 kts 308°
2026-05-06 01:12 19.31320 -99.17411 10115 ft 254 kts 308°
2026-05-06 01:13 19.32521 -99.18748 9969 ft 241 kts 331°
2026-05-06 01:13 19.33998 -99.19307 9875 ft 214 kts 353°
2026-05-06 01:13 19.35413 -99.19225 9659 ft 201 kts 14°
2026-05-06 01:13 19.36705 -99.18712 9481 ft 200 kts 33°
2026-05-06 01:14 19.38368 -99.16305 9134 ft 212 kts 59°
2026-05-06 01:14 19.39119 -99.14973 8843 ft 203 kts 59°
2026-05-06 01:14 19.39811 -99.13740 8568 ft 191 kts 59°
2026-05-06 01:15 19.40484 -99.12541 8305 ft 183 kts 60°
2026-05-06 01:15 19.41139 -99.11374 8056 ft 184 kts 60°
2026-05-06 01:15 19.41749 -99.10288 7834 ft 172 kts 60°
2026-05-06 01:15 19.42357 -99.09214 7569 ft 159 kts 60°
2026-05-06 01:16 19.42853 -99.08325 7388 ft 145 kts 63°
2026-05-06 01:16 19.43299 -99.07519 7322 ft 130 kts 63°
2026-05-06 01:16 19.43667 -99.06866 7322 ft 53 kts 60°
2026-05-06 01:16 19.43836 -99.06544 7322 ft 45 kts 53°
2026-05-06 01:17 19.43959 -99.06272 7322 ft 38 kts 81°
2026-05-06 01:17 19.43967 -99.06113 7322 ft 0 kts 90°
2026-05-06 01:17 19.43967 -99.06112 7322 ft 0 kts 90°
2026-05-06 01:17 19.43967 -99.06106 7322 ft 0 kts 90°
2026-05-06 01:18 19.43967 -99.06105 7322 ft 1 kts 90°
2026-05-06 01:18 19.43918 -99.06094 7322 ft 22 kts 224°
2026-05-06 01:18 19.43812 -99.06260 7322 ft 24 kts 238°
2026-05-06 01:19 19.43732 -99.06398 7322 ft 18 kts 246°
2026-05-06 01:19 19.43676 -99.06499 7322 ft 13 kts 239°
2026-05-06 01:19 19.43634 -99.06573 7322 ft 11 kts 238°
2026-05-06 01:19 19.43594 -99.06640 7322 ft 10 kts 238°
2026-05-06 01:20 19.43539 -99.06702 7322 ft 13 kts 208°
2026-05-06 01:20 19.43466 -99.06744 7322 ft 13 kts 208°
2026-05-06 01:20 19.43300 -99.06882 7322 ft 50 kts 237°
2026-05-06 01:20 19.43135 -99.07227 7322 ft 50 kts 238°
2026-05-06 01:21 19.42978 -99.07505 7322 ft 43 kts 240°
2026-05-06 01:21 19.42884 -99.07632 7322 ft 13 kts 180°
2026-05-06 01:21 19.42840 -99.07652 7322 ft 2 kts 238°
2026-05-06 01:21 19.42839 -99.07653 7322 ft 0 kts 239°